International Virtual Aviation Organisation

Russian Federation and Kazakhstan MCD

 

Карточка аэропорта USCC

Внимание!
Информация на этой странице в стадии наполнения.
Если вы не увидели какой-то информации, или заметили неточность - пожалуйста сообщите нам!
Спасибо!
Команда RU-STAFF
Название аэропортаБаландино
Название аэропорта (англ.)Balandino
Превышение769 ft. (234.4 m.)
Координаты55°18.348', 61°30.198'
Высота перехода1500m (5700ft)
Эшелон переходаFL080
Коды ответчика5560-5563
Зона ОрВДЕкатеринбург РПИ (USSV)
Данные METARUSCC 302200Z 22004MPS CAVOK M03/M04 Q1027 R09/000060 NOSIG RMK QFE749
Проноз погоды (TAF)USCC 302000Z 3021/3121 20003G10MPS 6000 SCT040 TEMPO 3021/3103 0300 FZFG BKN016
NOTAMshow/hide NOTAM
AWOS   TABLE

Информация о ВПП


Диспетчерские позиции

Позывной Наименование органа УВД Частота
USCC_APPЧелябинск-Подход124.7
USCC_TWRЧелябинск-Старт125.2



Спутниковое изображение